Weather History for Newark, NJ

Change the Weather History Date:

Saturday, December 17, 2011

  Actual Average Record
Temperature  
Mean Temperature 39 °F 36 °F  
Max Temperature 46 °F 43 °F 66 °F (2000)
Min Temperature 31 °F 29 °F 6 °F (1951)
Degree Days  
Heating Degree Days 26 29  
Month to date heating degree days 354 448  
Since 1 July heating degree days 1013 1316  
Cooling Degree Days 0 0  
Month to date cooling degree days 0 0  
Year to date cooling degree days 1585 1192  
Moisture  
Dew Point 20 °F    
Average Humidity 51    
Maximum Humidity 69    
Minimum Humidity 33    
Precipitation  
Precipitation 0.00 in 0.12 in 0.92 in (2000)
Month to date precipitation 2.25 2.17  
Year to date precipitation 67.65 44.61  
Snow  
Snow 0.00 in 0.20 in 0.90 in (1973)
Month to date snowfall 0.0 2.3  
Since 1 July snowfall 5.2 2.7  
Snow Depth 0.00 in    
Sea Level Pressure  
Sea Level Pressure 30.12 in    
Wind  
Wind Speed 11 mph (NW)    
Max Wind Speed 20 mph    
Max Gust Speed 29 mph    
Visibility 10 miles    
Events      
T = Trace of Precipitation, MM = Missing Value Source: NWS Daily Summary

Daily Weather History Graph

Daily Weather History Graph

Search for Another Location

Airport:

Trip Planner

Search our weather history database for the weather conditions in past years. The results will help you decide how hot, cold, wet, or windy it might be!

Date:

Astronomy

Dec. 17, 2011 Rise Set
Actual Time 7:14 AM EST 4:30 PM EST
Civil Twilight 6:43 AM EST 5:01 PM EST
Nautical Twilight 6:09 AM EST 5:36 PM EST
Astronomical Twilight 5:35 AM EST 6:09 PM EST
Moon No Moon Rise 11:26 AM EST (12/17)
Length of Visible Light 10h 18m
Length of Day
9h 16m
Waning Gibbous, 54% of the Moon is Illuminated
Dec 17
Waning Gibbous
Dec 17
Last Quarter
Dec 24
New
Jan 1
First Quarter
Jan 9
Full

Hourly Weather History & Observations

Time (EST) Temp. Windchill Dew Point Humidity Pressure Visibility Wind Dir Wind Speed Gust Speed Precip Events Conditions
12:51 AM 39.9 °F 36.7 °F 24.1 °F 53% 30.12 in 10.0 mi West 4.6 mph - N/A   Mostly Cloudy
1:51 AM 37.9 °F 33.5 °F 24.1 °F 57% 30.10 in 10.0 mi West 5.8 mph - N/A   Scattered Clouds
2:51 AM 36.0 °F 30.3 °F 24.1 °F 62% 30.12 in 10.0 mi WNW 6.9 mph - N/A   Mostly Cloudy
3:51 AM 36.0 °F 29.6 °F 24.1 °F 62% 30.10 in 10.0 mi NW 8.1 mph - N/A   Scattered Clouds
4:51 AM 35.1 °F 29.3 °F 24.1 °F 64% 30.10 in 10.0 mi WNW 6.9 mph - N/A   Scattered Clouds
5:51 AM 34.0 °F 27.2 °F 24.1 °F 67% 30.12 in 10.0 mi West 8.1 mph - N/A   Mostly Cloudy
6:51 AM 34.0 °F 26.0 °F 24.1 °F 67% 30.13 in 10.0 mi WNW 10.4 mph 18.4 mph N/A   Mostly Cloudy
7:51 AM 35.6 °F 27.5 °F 24.8 °F 65% 30.13 in 10.0 mi West 11.5 mph 16.1 mph N/A   Scattered Clouds
8:51 AM 37.0 °F 29.8 °F 25.0 °F 62% 30.13 in 10.0 mi WNW 10.4 mph - N/A   Scattered Clouds
9:51 AM 41.0 °F 35.8 °F 25.0 °F 53% 30.13 in 10.0 mi NW 8.1 mph 16.1 mph N/A   Mostly Cloudy
10:51 AM 43.0 °F 36.4 °F 23.0 °F 45% 30.10 in 10.0 mi NW 12.7 mph - N/A   Mostly Cloudy
11:51 AM 45.0 °F 38.5 °F 21.0 °F 39% 30.09 in 10.0 mi NNW 13.8 mph 23.0 mph N/A   Mostly Cloudy
12:51 PM 45.0 °F 38.5 °F 21.0 °F 39% 30.07 in 10.0 mi WNW 13.8 mph 19.6 mph N/A   Mostly Cloudy
1:51 PM 44.1 °F 38.6 °F 17.1 °F 34% 30.08 in 10.0 mi NW 10.4 mph - N/A   Overcast
2:51 PM 41.0 °F 33.5 °F 21.2 °F 45% 30.08 in 10.0 mi NNW 13.8 mph - N/A   Overcast
3:51 PM 39.9 °F 31.8 °F 21.0 °F 47% 30.10 in 10.0 mi NW 15.0 mph - N/A   Overcast
4:51 PM 39.0 °F 31.4 °F 18.0 °F 43% 30.11 in 10.0 mi NW 12.7 mph - N/A   Mostly Cloudy
5:51 PM 37.9 °F 28.9 °F 16.0 °F 41% 30.13 in 10.0 mi NW 16.1 mph - N/A   Mostly Cloudy
6:51 PM 37.0 °F 26.7 °F 14.0 °F 39% 30.15 in 10.0 mi NW 19.6 mph 27.6 mph N/A   Mostly Cloudy
7:51 PM 35.1 °F 25.9 °F 12.9 °F 40% 30.17 in 10.0 mi NW 13.8 mph 21.9 mph N/A   Mostly Cloudy
8:51 PM 34.0 °F 24.6 °F 12.9 °F 42% 30.17 in 10.0 mi NNW 13.8 mph 24.2 mph N/A   Mostly Cloudy
9:51 PM 33.1 °F 23.9 °F 12.9 °F 43% 30.17 in 10.0 mi NW 12.7 mph - N/A   Mostly Cloudy
10:51 PM 32.0 °F 23.0 °F 12.9 °F 45% 30.17 in 10.0 mi NNW 11.5 mph - N/A   Mostly Cloudy
11:51 PM 32.0 °F 24.2 °F 14.0 °F 48% 30.17 in 10.0 mi NNW 9.2 mph - N/A   Mostly Cloudy